Change the Weather History Date:

Friday, May 23, 2014

  Actual Average Record
Temperature  
Mean Temperature 64 °F -  
Max Temperature 78 °F 74 °F 89 °F (2004)
Min Temperature 51 °F 52 °F 37 °F (1997)
Growing Degree Days 14 (Base 50)    
Moisture  
Dew Point 44 °F    
Average Humidity 49    
Maximum Humidity 84    
Minimum Humidity 24    
Precipitation  
Precipitation 0.00 in - - ()
Sea Level Pressure  
Sea Level Pressure 30.01 in    
Wind  
Wind Speed 5 mph (NNW)    
Max Wind Speed 16 mph    
Max Gust Speed 23 mph    
Visibility 10 miles    
Events      
Averages and records for this station are not official NWS values.
T = Trace of Precipitation, MM = Missing Value Source: NWS Daily Summary

Daily Weather History Graph

Daily Weather History Graph

Search for Another Location

Airport or City:

Trip Planner

Search our weather history database for the weather conditions in past years. The results will help you decide how hot, cold, wet, or windy it might be!

Date:

Astronomy

May. 23, 2014 Rise Set
Actual Time 5:58 AM EDT 8:26 PM EDT
Civil Twilight 5:28 AM EDT 8:56 PM EDT
Nautical Twilight 4:50 AM EDT 9:34 PM EDT
Astronomical Twilight 4:09 AM EDT 10:16 PM EDT
Moon 2:47 AM EDT (5/23) 3:21 PM EDT (5/23)
Length of Visible Light 15h 28m
Length of Day
14h 27m
Waning Crescent, 27% of the Moon is Illuminated
May 23
Waning Crescent
May 28
New
Jun 5
First Quarter
Jun 13
Full
Jun 19
Last Quarter

Hourly Weather History & Observations

Time (EDT) Temp. Dew Point Humidity Pressure Visibility Wind Dir Wind Speed Gust Speed Precip Events Conditions
12:15 AM 61.7 °F 50.4 °F 66% 29.98 in 10.0 mi NW 5.8 mph - N/A   Clear
12:35 AM 64.0 °F 50.9 °F 62% 29.99 in 10.0 mi Calm Calm - N/A   Clear
12:55 AM 61.5 °F 50.9 °F 68% 29.99 in 10.0 mi ENE 3.5 mph - N/A   Clear
1:15 AM 63.1 °F 50.9 °F 64% 29.98 in 10.0 mi Calm Calm - N/A   Clear
1:35 AM 63.9 °F 50.4 °F 61% 29.98 in 10.0 mi North 5.8 mph - N/A   Clear
1:55 AM 64.6 °F 48.7 °F 56% 29.99 in 10.0 mi North 5.8 mph - N/A   Clear
2:15 AM 63.9 °F 48.2 °F 57% 29.99 in 10.0 mi North 3.5 mph - N/A   Clear
2:35 AM 62.8 °F 47.5 °F 57% 29.98 in 10.0 mi North 8.1 mph - N/A   Clear
2:55 AM 63.5 °F 46.9 °F 55% 29.98 in 10.0 mi North 8.1 mph - N/A   Clear
3:15 AM 63.0 °F 46.9 °F 56% 29.99 in 10.0 mi NNE 6.9 mph - N/A   Clear
3:35 AM 62.2 °F 46.6 °F 57% 29.98 in 10.0 mi North 5.8 mph - N/A   Clear
3:55 AM 61.2 °F 46.4 °F 58% 29.99 in 10.0 mi North 4.6 mph - N/A   Clear
4:15 AM 60.3 °F 45.7 °F 59% 29.99 in 10.0 mi North 4.6 mph - N/A   Clear
4:35 AM 57.0 °F 45.9 °F 66% 29.99 in 10.0 mi Calm Calm - N/A   Clear
4:55 AM 56.1 °F 46.8 °F 71% 29.99 in 10.0 mi Calm Calm - N/A   Clear
5:15 AM 53.1 °F 46.8 °F 79% 29.99 in 10.0 mi Calm Calm - N/A   Clear
5:35 AM 54.5 °F 46.6 °F 75% 30.00 in 10.0 mi Calm Calm - N/A   Clear
5:55 AM 51.6 °F 46.4 °F 82% 30.01 in 10.0 mi Calm Calm - N/A   Clear
6:15 AM 51.4 °F 45.7 °F 81% 30.01 in 10.0 mi Calm Calm - N/A   Clear
6:35 AM 51.6 °F 46.4 °F 82% 30.02 in 10.0 mi Calm Calm - N/A   Clear
6:55 AM 52.2 °F 47.1 °F 83% 30.03 in 10.0 mi Calm Calm - N/A   Clear
7:15 AM 53.1 °F 48.2 °F 84% 30.04 in 10.0 mi Calm Calm - N/A   Clear
7:35 AM 56.3 °F 50.4 °F 80% 30.03 in 10.0 mi Calm Calm - N/A   Clear
7:55 AM 58.6 °F 50.4 °F 74% 30.04 in 10.0 mi Calm Calm - N/A   Clear
8:15 AM 61.0 °F 50.2 °F 68% 30.05 in 10.0 mi Calm Calm - N/A   Clear
8:35 AM 63.0 °F 48.4 °F 59% 30.05 in 10.0 mi Calm Calm - N/A   Clear
8:55 AM 63.7 °F 48.7 °F 58% 30.04 in 10.0 mi Calm Calm - N/A   Clear
9:15 AM 64.9 °F 49.3 °F 57% 30.04 in 10.0 mi Calm Calm - N/A   Clear
9:35 AM 66.2 °F 48.7 °F 53% 30.04 in 10.0 mi Calm Calm - N/A   Clear
9:55 AM 68.9 °F 46.4 °F 44% 30.04 in 10.0 mi NNW 4.6 mph - N/A   Clear
10:15 AM 68.2 °F 45.5 °F 44% 30.03 in 10.0 mi NW 6.9 mph - N/A   Clear
10:55 AM 69.8 °F 43.9 °F 39% 30.02 in 10.0 mi NNW 3.5 mph - N/A   Clear
11:15 AM 70.5 °F 43.5 °F 38% 30.02 in 10.0 mi WNW 6.9 mph - N/A   Clear
11:35 AM 70.7 °F 41.9 °F 35% 30.02 in 10.0 mi Calm Calm - N/A   Clear
11:55 AM 72.1 °F 43.2 °F 35% 30.02 in 10.0 mi WNW 4.6 mph - N/A   Clear
12:35 PM 72.7 °F 42.4 °F 34% 30.01 in 10.0 mi NNW 3.5 mph - N/A   Mostly Cloudy
12:55 PM 72.7 °F 42.3 °F 33% 30.00 in 10.0 mi SSE 4.6 mph - N/A   Scattered Clouds
1:15 PM 73.6 °F 43.5 °F 34% 29.99 in 10.0 mi South 5.8 mph - N/A   Scattered Clouds
1:35 PM 74.5 °F 43.2 °F 33% 29.98 in 10.0 mi Calm Calm - N/A   Scattered Clouds
1:55 PM 74.8 °F 42.6 °F 31% 29.97 in 10.0 mi Calm Calm - N/A   Scattered Clouds
2:15 PM 77.0 °F 42.6 °F 29% 29.97 in 10.0 mi NNE 8.1 mph - N/A   Scattered Clouds
2:55 PM 77.5 °F 40.3 °F 26% 29.96 in 10.0 mi North 8.1 mph - N/A   Scattered Clouds
3:15 PM 78.3 °F 41.2 °F 27% 29.95 in 10.0 mi WNW 5.8 mph 18.4 mph N/A   Scattered Clouds
3:35 PM 78.8 °F 39.4 °F 24% 29.95 in 10.0 mi NW 15.0 mph - N/A   Clear
4:15 PM 78.4 °F 39.0 °F 24% 29.95 in 10.0 mi NW 16.1 mph 23.0 mph N/A   Clear
4:35 PM 77.4 °F 38.3 °F 24% 29.96 in 10.0 mi NNW 13.8 mph 20.7 mph N/A   Clear
4:55 PM 77.4 °F 38.8 °F 25% 29.96 in 10.0 mi NNW 12.7 mph 20.7 mph N/A   Clear
5:15 PM 76.8 °F 39.4 °F 26% 29.97 in 10.0 mi NW 15.0 mph 19.6 mph N/A   Clear
5:35 PM 75.7 °F 39.6 °F 27% 29.97 in 10.0 mi WNW 11.5 mph 19.6 mph N/A   Clear
5:55 PM 75.2 °F 40.6 °F 29% 29.97 in 10.0 mi NW 10.4 mph 16.1 mph N/A   Clear
6:15 PM 74.5 °F 40.6 °F 30% 29.97 in 10.0 mi NW 10.4 mph - N/A   Clear
6:35 PM 73.9 °F 39.7 °F 29% 29.98 in 10.0 mi NW 15.0 mph 19.6 mph N/A   Clear
6:55 PM 72.9 °F 39.7 °F 30% 29.99 in 10.0 mi NNW 12.7 mph 18.4 mph N/A   Clear
7:15 PM 70.7 °F 38.8 °F 31% 30.00 in 10.0 mi NW 12.7 mph 21.9 mph N/A   Clear
7:35 PM 69.8 °F 39.0 °F 33% 30.02 in 10.0 mi NW 8.1 mph 16.1 mph N/A   Clear
7:55 PM 69.3 °F 38.8 °F 33% 30.03 in 10.0 mi NW 9.2 mph - N/A   Scattered Clouds
8:15 PM 67.8 °F 39.0 °F 35% 30.03 in 10.0 mi NW 6.9 mph - N/A   Scattered Clouds
8:35 PM 66.0 °F 40.3 °F 39% 30.04 in 10.0 mi WNW 9.2 mph - N/A   Scattered Clouds
8:55 PM 64.0 °F 41.4 °F 43% 30.05 in 10.0 mi WNW 6.9 mph - N/A   Scattered Clouds
9:15 PM 62.1 °F 42.4 °F 49% 30.05 in 10.0 mi WNW 8.1 mph - N/A   Clear
9:35 PM 62.6 °F 42.1 °F 47% 30.06 in 10.0 mi Calm Calm - N/A   Clear
9:55 PM 61.3 °F 42.8 °F 51% 30.07 in 10.0 mi North 3.5 mph - N/A   Scattered Clouds
10:15 PM 62.6 °F 41.9 °F 47% 30.07 in 10.0 mi NW 6.9 mph - N/A   Scattered Clouds
10:35 PM 62.8 °F 41.9 °F 46% 30.08 in 10.0 mi North 3.5 mph - N/A   Scattered Clouds
10:55 PM 61.9 °F 41.9 °F 48% 30.08 in 10.0 mi North 5.8 mph - N/A   Scattered Clouds
11:15 PM 59.2 °F 42.8 °F 55% 30.09 in 10.0 mi NNE 5.8 mph - N/A   Scattered Clouds
11:35 PM 59.9 °F 42.8 °F 53% 30.10 in 10.0 mi North 6.9 mph - N/A   Clear
11:55 PM 58.5 °F 42.8 °F 56% 30.11 in 10.0 mi North 5.8 mph - N/A   Clear